[[{"header":{"parameterUnit":"m.s-1","parameterCategory":1,"la1":30.2991,"la2":30.254,"lo1":-89.0895,"lo2":-89.0444,"dy":0.0017,"dx":0.0017,"nx":28,"ny":28,"refTime":"2025-12-13T03:00:00:Z","depth":0,"parameterNumber":2,"parameterNumberName":"U-component_of_WINDS"},"data":[0,0,0,0,0,0,0,0,0,0,0,0,0,0,0,0,0,0,0,0,0,0,0,0,0,0,0,0,0,0,0,0,0,0,0,0,0,0,0,0,0,0,0,0,0,0,0,0,0,0,0,0,0,0,0,0,0,0,-3.2884,-3.2885,0,-3.2951,-3.2952,-3.2953,-3.287,-3.2867,-3.2864,-3.2861,-3.2932,-3.2936,-3.2941,0,0,0,0,0,0,0,0,0,0,0,0,0,-3.2683,-3.2687,-3.2884,-3.2885,-3.2886,-3.2951,-3.2952,-3.2953,-3.2871,-3.2867,-3.2864,-3.286,-3.293,-3.2936,-3.2941,0,0,0,0,0,0,0,0,0,0,0,0,0,-3.2763,-3.2689,-3.2884,-3.2852,-3.285,-3.2951,-3.2952,-3.2953,-3.2872,-3.2867,-3.2863,-3.2858,-3.2928,-3.2935,-3.2942,-3.3077,0,0,-3.2964,-3.2967,0,0,0,0,0,0,0,0,-3.2758,-3.277,-3.2856,-3.2855,-3.2853,-3.2898,-3.2907,-3.2995,-3.2873,-3.2864,-3.2861,-3.2856,-3.2924,-3.2931,-3.2954,-3.308,-3.3083,-3.2964,-3.2968,-3.2972,-3.2974,0,0,0,0,0,0,0,-3.2753,-3.2767,-3.2911,-3.2858,-3.2855,-3.2835,-3.2841,-3.2923,-3.2919,-3.2864,-3.2858,-3.2867,-3.2922,-3.2947,-3.2955,-3.3084,-3.2964,-3.297,-3.2975,-3.2977,-3.3324,-3.3329,0,0,0,0,0,0,-3.2751,-3.2763,-3.2908,-3.2913,-3.2793,-3.2842,-3.2849,-3.2888,-3.2918,-3.2918,-3.2871,-3.2863,-3.2938,-3.2947,-3.2957,-3.3117,-3.2971,-3.2978,-3.2982,-3.3319,-3.3325,-3.3331,0,0,0,0,0,0,-3.2747,-3.2765,-3.2906,-3.2836,-3.2852,-3.2851,-3.2895,-3.2892,-3.2917,-3.2923,-3.2922,-3.2898,-3.2934,-3.2947,-3.3048,-3.3119,-3.2981,-3.2988,-3.3313,-3.3321,-3.3328,-3.3439,0,0,0,0,0,0,-3.2742,-3.2764,-3.2816,-3.2838,-3.2857,-3.2996,-3.2899,-3.2896,-3.2929,-3.2919,-3.2948,-3.2948,-3.2932,-3.3038,-3.3055,-3.3126,-3.2993,-3.3307,-3.3317,-3.3325,-3.3429,-3.3449,-3.3467,0,0,0,0,0,-3.2735,-3.2844,-3.2819,-3.2837,-3.2921,-3.3,-3.3011,-3.299,-3.2935,-3.2987,-3.299,-3.2947,-3.3108,-3.3049,-3.3067,-3.3142,-3.3302,-3.3314,-3.3325,-3.3421,-3.3445,-3.3466,0,0,0,0,0,0,-3.2831,-3.2847,-3.2818,-3.2939,-3.2969,-3.2986,-3.3051,-3.3017,-3.3063,-3.3052,-3.3024,-3.3031,-3.3138,-3.3149,-3.3083,-3.3273,-3.3196,-3.3211,-3.3262,-3.3286,-3.3304,-3.33,-3.2999,0,0,0,0,0,-3.2866,-3.2929,-3.2939,-3.3044,-3.3061,-3.3053,-3.3087,-3.3068,-3.3098,-3.311,-3.3121,-3.3152,-3.3209,-3.3248,-3.3301,-3.3429,-3.3434,-3.3489,-3.3508,-3.3524,-3.3538,-3.3606,-3.3631,-3.3367,-3.3367,-3.3367,0,0,-3.294,-3.2956,-3.2998,-3.3064,-3.3085,-3.3151,-3.3065,-3.3138,-3.3186,-3.3121,-3.3217,-3.3226,-3.3259,-3.3374,-3.3425,-3.3386,-3.3611,-3.3538,-3.355,-3.3556,-3.362,-3.3645,-3.3667,-3.3375,-3.3373,-3.3372,0,0,-3.3108,-3.3126,-3.3216,-3.3238,-3.3271,-3.3265,-3.3286,-3.3308,-3.3312,-3.3407,-3.336,-3.3416,-3.3516,-3.3541,-3.3566,-3.3742,-3.3703,-3.3759,-3.3859,-3.3926,-3.3946,-3.3965,-3.4028,-3.4051,-3.3773,-3.3773,-3.3774,0,-3.3196,-3.3293,-3.3266,-3.3343,-3.3373,-3.3316,-3.3407,-3.343,-3.3478,-3.35,-3.3456,-3.3579,-3.3597,-3.3717,-3.3759,-3.3782,-3.3805,-3.3757,-3.3945,-3.3964,-3.398,-3.404,-3.4064,-3.378,-3.3779,-3.3779,-3.3778,0,-3.3399,-3.3467,-3.3535,-3.3583,-3.3621,-3.3704,-3.369,-3.3731,-3.3708,-3.3707,-3.3804,-3.3823,-3.3879,-3.3905,-3.3884,-3.4022,-3.3997,-3.395,-3.3872,-3.4013,-3.4068,-3.4091,-3.379,-3.3787,-3.3785,-3.3784,0,0,-3.3632,-3.3663,-3.3688,-3.3709,-3.374,-3.3792,-3.3871,-3.3925,-3.3962,-3.3996,-3.4063,-3.4147,-3.4103,-3.4132,-3.4112,-3.4171,-3.4309,-3.4116,-3.4116,-3.4152,-3.4463,-3.4499,-3.4526,-3.4283,-3.4287,-3.429,-3.446,0,-3.3801,-3.394,-3.3917,-3.4052,-3.4114,-3.4059,-3.4129,-3.4155,-3.4155,-3.4208,-3.4207,-3.4268,-3.4205,-3.4222,-3.4278,-3.4281,-3.4371,-3.4268,-3.4345,-3.4348,-3.434,-3.4555,-3.4594,-3.4754,-3.4482,-3.4485,-3.4488,0,-3.4017,-3.4059,-3.42,-3.422,-3.4245,-3.4308,-3.4355,-3.4406,-3.4434,-3.443,-3.4462,-3.4431,-3.451,-3.4429,-3.4538,-3.4468,-3.4498,-3.4504,-3.4509,-3.4517,-3.4428,-3.457,-3.4804,-3.4829,-3.4522,-3.4519,-3.4517,0,-3.4175,-3.4266,-3.4362,-3.4381,-3.4406,-3.4452,-3.4464,-3.4488,-3.4521,-3.4562,-3.4583,-3.4633,-3.4661,-3.4699,-3.4682,-3.4625,-3.4795,-3.4712,-3.4794,-3.4794,-3.4834,-3.4832,-3.5077,-3.4851,-3.485,-3.485,-3.4849,0,-3.4366,-3.4455,-3.4432,-3.4492,-3.4589,-3.4561,-3.4658,-3.4664,-3.4685,-3.4744,-3.4699,-3.4755,-3.4729,-3.4783,-3.477,-3.4862,-3.4875,-3.4874,-3.487,-3.4879,-3.4879,-3.4899,-3.4888,-3.4856,-3.4855,-3.4853,-3.4852,0,-3.456,-3.4548,-3.4649,-3.4664,-3.467,-3.4741,-3.4753,-3.4809,-3.4804,-3.4879,-3.4895,-3.4889,-3.495,-3.4937,-3.5004,-3.4995,-3.5111,-3.5092,-3.5102,-3.5098,-3.5181,-3.5174,-3.5449,-3.5484,-3.5234,-3.5236,-3.5238,0,-3.4684,-3.475,-3.4772,-3.4808,-3.4824,-3.4883,-3.4917,-3.4892,-3.4928,-3.4964,-3.5015,-3.5072,-3.5117,-3.5217,-3.5219,-3.527,-3.5252,-3.5345,-3.526,-3.5267,-3.5255,-3.5252,-3.5258,-3.5363,-3.5366,-3.5368,-3.537,0,-3.4906,-3.4896,-3.4946,-3.4995,-3.5036,-3.5073,-3.5105,-3.5137,-3.5114,-3.5157,-3.5219,-3.5254,-3.5322,-3.538,-3.5426,-3.5438,-3.5401,-3.5397,-3.5418,-3.5429,-3.5433,-3.5433,-3.515,-3.5391,-3.5389,-3.5387,-3.5386,-3.5385,-3.5069,-3.5125,-3.5149,-3.5206,-3.5228,-3.5259,-3.5311,-3.5313,-3.5364,-3.5417,-3.5399,-3.547,-3.5494,-3.5553,-3.5571,-3.5626,-3.5591,-3.5622,-3.563,-3.5639,-3.5649,-3.5422,-3.5634,-3.5633,-3.5633,-3.5632,-3.5632,0,-3.5289,-3.5301,-3.5354,-3.54,-3.5445,-3.5404,-3.5438,-3.5478,-3.5541,-3.5567,-3.5611,-3.5682,-3.5737,-3.5742,-3.5793,-3.5836,-3.582,-3.585,-3.5848,-3.5851,-3.5677,-3.5654,-3.5862,-3.5862,-3.5862,-3.5862,-3.5862,-3.5862,-3.5409,-3.5503,-3.5496,-3.5599,-3.561,-3.5679,-3.5702,-3.573,-3.575,-3.5831,-3.5876,-3.5879,-3.5896,-3.5948,-3.5996,-3.5996,-3.6018,-3.6055,-3.6049,-3.5886,-3.5864,-3.5842,-3.582,-3.606,-3.606,-3.6218,-3.622,-3.6221]},{"header":{"parameterUnit":"m.s-1","parameterCategory":1,"la1":30.2991,"la2":30.254,"lo1":-89.0895,"lo2":-89.0444,"dy":0.0017,"dx":0.0017,"nx":28,"ny":28,"refTime":"2025-12-13T03:00:00:Z","depth":0,"parameterNumber":3,"parameterNumberName":"V-component_of_WINDS"},"data":[0,0,0,0,0,0,0,0,0,0,0,0,0,0,0,0,0,0,0,0,0,0,0,0,0,0,0,0,0,0,0,0,0,0,0,0,0,0,0,0,0,0,0,0,0,0,0,0,0,0,0,0,0,0,0,0,0,0,-8.6043,-8.6045,0,-8.6165,-8.6166,-8.6168,-8.6061,-8.6057,-8.6052,-8.6048,-8.6167,-8.6174,-8.6181,0,0,0,0,0,0,0,0,0,0,0,0,0,-8.5712,-8.5719,-8.6043,-8.6045,-8.6046,-8.6165,-8.6166,-8.6168,-8.6062,-8.6056,-8.6051,-8.6046,-8.6164,-8.6173,-8.6182,0,0,0,0,0,0,0,0,0,0,0,0,0,-8.5847,-8.5721,-8.6043,-8.6008,-8.6006,-8.6164,-8.6167,-8.6169,-8.6063,-8.6056,-8.605,-8.6044,-8.6162,-8.6172,-8.6183,-8.6381,0,0,-8.6216,-8.6221,0,0,0,0,0,0,0,0,-8.5839,-8.5859,-8.6011,-8.601,-8.6008,-8.6091,-8.6093,-8.624,-8.6064,-8.6041,-8.6048,-8.604,-8.6147,-8.6158,-8.6195,-8.6386,-8.6392,-8.6217,-8.6223,-8.6228,-8.6231,0,0,0,0,0,0,0,-8.583,-8.5853,-8.6091,-8.6014,-8.6012,-8.5983,-8.5995,-8.612,-8.6129,-8.6042,-8.6035,-8.6051,-8.6144,-8.6185,-8.6197,-8.6393,-8.6217,-8.6226,-8.6233,-8.6237,-8.6751,-8.6758,0,0,0,0,0,0,-8.5825,-8.5846,-8.6087,-8.6095,-8.5906,-8.5995,-8.6008,-8.6071,-8.6127,-8.613,-8.6057,-8.6046,-8.617,-8.6185,-8.6201,-8.6436,-8.6228,-8.6238,-8.6244,-8.6744,-8.6753,-8.676,0,0,0,0,0,0,-8.5819,-8.5848,-8.6082,-8.5969,-8.5996,-8.6007,-8.6079,-8.6077,-8.6118,-8.6138,-8.6138,-8.6097,-8.6165,-8.6186,-8.6337,-8.6438,-8.6243,-8.6253,-8.6736,-8.6747,-8.6757,-8.6908,0,0,0,0,0,0,-8.581,-8.5846,-8.5923,-8.5971,-8.6003,-8.6219,-8.6085,-8.6084,-8.6137,-8.6124,-8.6176,-8.6178,-8.6162,-8.6321,-8.6348,-8.645,-8.6261,-8.6726,-8.6741,-8.6753,-8.6894,-8.6922,-8.6947,0,0,0,0,0,-8.5798,-8.596,-8.5928,-8.5957,-8.61,-8.6225,-8.6243,-8.6222,-8.6146,-8.6222,-8.6235,-8.6177,-8.6423,-8.6338,-8.6367,-8.6473,-8.672,-8.6737,-8.6752,-8.6882,-8.6917,-8.6946,0,0,0,0,0,0,-8.5922,-8.5966,-8.593,-8.6113,-8.6167,-8.6207,-8.6303,-8.626,-8.6334,-8.6319,-8.6288,-8.63,-8.646,-8.6481,-8.6386,-8.6667,-8.6559,-8.6581,-8.6648,-8.6681,-8.6707,-8.6698,-8.627,0,0,0,0,0,-8.5971,-8.6071,-8.6103,-8.6261,-8.6289,-8.6292,-8.6346,-8.6325,-8.6378,-8.64,-8.6424,-8.6476,-8.6564,-8.6624,-8.6707,-8.6896,-8.6905,-8.6983,-8.701,-8.7032,-8.7051,-8.7152,-8.7187,-8.6813,-8.6813,-8.6813,0,0,-8.6072,-8.6108,-8.6173,-8.6287,-8.6325,-8.6428,-8.6312,-8.6425,-8.65,-8.6416,-8.6561,-8.658,-8.6636,-8.6807,-8.6884,-8.683,-8.7156,-8.7052,-8.7069,-8.7077,-8.7172,-8.7207,-8.7239,-8.6824,-8.6822,-8.682,0,0,-8.6309,-8.6347,-8.6483,-8.6524,-8.6585,-8.6586,-8.6618,-8.6666,-8.6676,-8.6821,-8.676,-8.6847,-8.7002,-8.7044,-8.7085,-8.7338,-8.7286,-8.7365,-8.7504,-8.7602,-8.7631,-8.7657,-8.7746,-8.7778,-8.7385,-8.7385,-8.7385,0,-8.6427,-8.6581,-8.6557,-8.6676,-8.6726,-8.6657,-8.6793,-8.6833,-8.6918,-8.6953,-8.6892,-8.7084,-8.7117,-8.7296,-8.7358,-8.7394,-8.7428,-8.7359,-8.7629,-8.7655,-8.7679,-8.7763,-8.7797,-8.7394,-8.7393,-8.7392,-8.7391,0,-8.6722,-8.683,-8.6931,-8.7017,-8.7078,-8.7205,-8.7198,-8.7263,-8.7237,-8.7243,-8.7391,-8.7428,-8.7517,-8.7557,-8.7532,-8.7733,-8.7698,-8.7634,-8.7524,-8.7724,-8.7803,-8.7835,-8.7408,-8.7404,-8.7402,-8.7399,0,0,-8.7041,-8.7112,-8.7149,-8.7187,-8.7248,-8.733,-8.7452,-8.7541,-8.7597,-8.7657,-8.7757,-8.7889,-8.783,-8.7877,-8.7856,-8.7942,-8.8138,-8.7867,-8.7867,-8.7915,-8.836,-8.8408,-8.8446,-8.8104,-8.811,-8.8115,-8.8355,0,-8.728,-8.7495,-8.7477,-8.7679,-8.7777,-8.7712,-8.7818,-8.7866,-8.7875,-8.7957,-8.7965,-8.8059,-8.7975,-8.8003,-8.8085,-8.8097,-8.8227,-8.8079,-8.8195,-8.82,-8.8184,-8.8487,-8.8538,-8.8763,-8.8386,-8.8391,-8.8395,0,-8.7588,-8.7661,-8.7874,-8.792,-8.796,-8.8056,-8.8135,-8.8216,-8.8268,-8.8268,-8.8321,-8.8285,-8.8405,-8.8293,-8.8457,-8.8358,-8.8403,-8.8416,-8.8424,-8.8434,-8.8309,-8.8505,-8.8835,-8.8868,-8.8443,-8.8439,-8.8436,0,-8.7798,-8.7949,-8.8096,-8.813,-8.8188,-8.8257,-8.8283,-8.8329,-8.8384,-8.8452,-8.8486,-8.8567,-8.8611,-8.8674,-8.8659,-8.8579,-8.8827,-8.8714,-8.8828,-8.8829,-8.8883,-8.888,-8.9225,-8.8914,-8.8913,-8.8913,-8.8912,0,-8.8067,-8.82,-8.8191,-8.8282,-8.8427,-8.8404,-8.8548,-8.8566,-8.8608,-8.8698,-8.8646,-8.8732,-8.8708,-8.8792,-8.8781,-8.8918,-8.8938,-8.894,-8.8935,-8.8945,-8.8945,-8.8974,-8.8958,-8.8922,-8.892,-8.8918,-8.8917,0,-8.8327,-8.8327,-8.8483,-8.8525,-8.8538,-8.8644,-8.8679,-8.8763,-8.8767,-8.8882,-8.8908,-8.8914,-8.901,-8.9002,-8.9109,-8.9102,-8.9271,-8.9248,-8.9255,-8.9249,-8.9364,-8.9353,-8.974,-8.9789,-8.9447,-8.945,-8.9453,0,-8.8499,-8.86,-8.8653,-8.8711,-8.8743,-8.8837,-8.8892,-8.8872,-8.8932,-8.8998,-8.9074,-8.9166,-8.9238,-8.9394,-8.9407,-8.9488,-8.9466,-8.9596,-8.9478,-8.9484,-8.9467,-8.9462,-8.9471,-8.9619,-8.9623,-8.9626,-8.9629,0,-8.8803,-8.8798,-8.8881,-8.8965,-8.9033,-8.9097,-8.9155,-8.9204,-8.919,-8.9259,-8.9358,-8.9414,-8.9524,-8.9615,-8.9693,-8.9717,-8.9671,-8.9666,-8.9697,-8.9707,-8.9707,-8.9708,-8.9318,-8.9657,-8.9654,-8.9652,-8.9651,-8.965,-8.9023,-8.911,-8.9161,-8.9255,-8.9297,-8.9352,-8.9433,-8.9448,-8.9531,-8.962,-8.9603,-8.9713,-8.9761,-8.986,-8.9893,-8.9977,-8.993,-8.9975,-8.9986,-8.9997,-9.001,-8.9694,-8.9991,-8.999,-8.9989,-8.9989,-8.9988,0,-8.9324,-8.9354,-8.9441,-8.9525,-8.9598,-8.955,-8.9611,-8.9675,-8.9774,-8.9823,-8.9896,-9.0009,-9.0097,-9.0116,-9.02,-9.0263,-9.0244,-9.0286,-9.0281,-9.0287,-9.0048,-9.0013,-9.03,-9.03,-9.03,-9.03,-9.03,-9.03,-8.949,-8.9633,-8.9634,-8.9796,-8.9824,-8.9934,-8.9973,-9.0023,-9.0062,-9.0191,-9.0265,-9.0277,-9.0314,-9.04,-9.0477,-9.048,-9.0513,-9.0564,-9.0559,-9.0335,-9.0304,-9.0274,-9.0241,-9.0571,-9.0572,-9.079,-9.0792,-9.0794]}]]